Location: Minneapolis
(44.9800°N, 93.2640°W)
Time: 03:04:36
(UTC-05:00)

Envisat - Visible Passes

Search period start: 17 July 2018 00:00
Search period end: 27 July 2018 00:00
Orbit: 764 x 766 km, 98.2° (Epoch: 16 July)

Date Brightness Start Highest point End Pass type
(mag) Time Alt. Az. Time Alt. Az. Time Alt. Az.
17 Jul 6.0 22:04:16 10° W 22:05:32 11° W 22:06:48 10° WNW visible
18 Jul 5.3 21:24:17 10° SSW 21:28:21 24° W 21:32:27 10° NW visible
20 Jul 5.7 21:51:36 10° WSW 21:54:13 14° W 21:56:50 10° WNW visible
23 Jul 5.6 21:39:33 10° SW 21:42:55 18° W 21:46:18 10° NW visible
26 Jul 5.4 21:27:44 10° SW 21:31:38 22° W 21:35:33 10° NW visible
